User: anonymous   Login
Location: Unnamed
(23.5608°S, 46.6833°W)
Time: 14:38:47
(UTC-03:00)
Language:

CZ-2D R/B - Orbit

View from above orbital plane
View from above orbital plane
View from above satellite
View from above satellite

Ground track
Ground track

The orbit data is extracted from the following two-line orbital elements,

1 43486U 18048C   24141.08553943  .00009902  00000-0  11596-2 0  9999
2 43486  97.6656 185.7760 0014572 153.8765 206.3189 14.85145727322194
Epoch (UTC): 20 May 2024 02:03:10
Eccentricity: 0.0014572
inclination: 97.6656°
perigee height: 603 km
apogee height: 623 km
right ascension of ascending node: 185.7760°
argument of perigee: 153.8765°
revolutions per day: 14.85145727
mean anomaly at epoch: 206.3189°
orbit number at epoch: 32219

The dashed part of the orbit path shows where the satellite is in the earth's shadow,  

DLR